Printer-friendly version

IAU Minor Planet Center

Minor Planet Center

MPEC 1996-D01: 1996 DH

The following Minor Planet Electronic Circular may be linked-to from your own Web pages, but must not otherwise be redistributed electronically.


Read MPEC 1996-C06 Read MPEC 1996-D02


M.P.E.C. 1996-D01                                Issued 1996 Feb. 21, 15:12 UT

     The Minor Planet Electronic Circulars contain information on unusual
         minor planets and routine data on comets.  They are published
   on behalf of Commission 20 of the International Astronomical Union by the
          Minor Planet Center, Smithsonian Astrophysical Observatory,
                          Cambridge, MA 02138, U.S.A.

             BMARSDEN@CFA.HARVARD.EDU or GWILLIAMS@CFA.HARVARD.EDU

                                    1996 DH

Observations:
     J96D00H* C1996 02 18.19275 09 20 17.36 +05 38 17.9          18.4 V      691
     J96D00H  C1996 02 18.21366 09 20 15.01 +05 38 15.5          18.3 V      691
     J96D00H  C1996 02 18.28472 09 20 07.03 +05 38 08.1          18.2 V      691
     J96D00H  C1996 02 18.30729 09 20 04.45 +05 38 05.5          18.0 V      691
     J96D00H  C1996 02 18.32827 09 20 02.08 +05 38 03.1          18.0 V      691
     J96D00H  C1996 02 18.34923 09 19 59.72 +05 38 00.6          17.9 V      691
     J96D00H  C1996 02 19.24163 09 18 22.67 +05 36 23.2                      691
     J96D00H  C1996 02 19.24532 09 18 22.24 +05 36 23.0                      691
     J96D00H  C1996 02 19.24946 09 18 21.79 +05 36 22.6                      691
     J96D00H  C1996 02 21.40272 09 14 29.79 +05 32 42.7                      691
     J96D00H  C1996 02 21.40640 09 14 29.19 +05 32 42.9                      691
     J96D00H  C1996 02 21.41031 09 14 28.75 +05 32 41.8                      691

Observer details:
691 Steward Observatory, Kitt Peak.  Observer R. Jedicke.
    0.9-m Spacewatch telescope.

Orbital elements:
1996 DH
Epoch 1996 Feb. 7.0 TT = JDT 2450120.5                  Marsden
M 213.20717              (2000.0)            P               Q
n   0.49719125     Peri.  352.52632     +0.52904549     +0.81870392
a   1.5780487      Node   309.12694     -0.76292257     +0.34369566
e   0.2644238      Incl.   16.72446     -0.37156428     +0.45999694
P   1.98           H    16.5          G   0.15
From 11 observations 1996 Feb. 18-21.

Ephemeris:
1996 DH                  a,e,i = 1.58, 0.26, 17                  q = 1.1608
Date    TT    R. A. (2000) Decl.     Delta      r     Elong.  Phase     V
1996 02 17    09 22.47   +05 40.7    0.959    1.938   168.7     5.7    18.3
1996 02 22    09 13.45   +05 31.8    0.962    1.930   163.1     8.6    18.4
1996 02 27    09 04.97   +05 24.7    0.972    1.922   156.8    11.7    18.6
1996 03 03    08 57.32   +05 18.8    0.988    1.913   150.4    14.8    18.7
1996 03 08    08 50.68   +05 13.7    1.009    1.904   144.1    17.8    18.8
1996 03 13    08 45.18   +05 08.8    1.035    1.894   138.0    20.6    19.0
1996 03 18    08 40.89   +05 03.7    1.065    1.884   132.2    23.0    19.1
1996 03 23    08 37.84   +04 58.0    1.099    1.874   126.7    25.2    19.2
1996 03 28    08 36.01   +04 51.2    1.135    1.863   121.5    27.2    19.3
1996 04 02    08 35.34   +04 43.0    1.174    1.851   116.6    28.9    19.5
1996 04 07    08 35.76   +04 33.2    1.214    1.839   112.0    30.3    19.6
1996 04 12    08 37.18   +04 21.4    1.254    1.827   107.6    31.5    19.6
1996 04 17    08 39.53   +04 07.6    1.295    1.814   103.5    32.6    19.7
1996 04 22    08 42.73   +03 51.4    1.337    1.801    99.6    33.4    19.8
1996 04 27    08 46.72   +03 32.8    1.378    1.787    95.9    34.1    19.9
1996 05 02    08 51.40   +03 11.5    1.418    1.773    92.4    34.6    19.9
1996 05 07    08 56.73   +02 47.6    1.457    1.759    89.1    35.0    20.0
1996 05 12    09 02.63   +02 20.9    1.495    1.744    85.9    35.3    20.0
1996 05 17    09 09.07   +01 51.4    1.532    1.729    82.9    35.5    20.1
1996 05 22    09 16.01   +01 19.0    1.568    1.713    80.1    35.6    20.1
1996 05 27    09 23.41   +00 43.6    1.602    1.697    77.3    35.6    20.1
1996 06 01    09 31.22   +00 05.4    1.634    1.681    74.7    35.6    20.2
1996 06 06    09 39.42   -00 35.8    1.664    1.664    72.3    35.5    20.2
1996 06 11    09 47.99   -01 19.8    1.693    1.648    69.9    35.4    20.2
1996 06 16    09 56.91   -02 06.8    1.719    1.630    67.6    35.2    20.2
1996 06 21    10 06.18   -02 56.5    1.744    1.613    65.4    35.0    20.2
1996 06 26    10 15.78   -03 49.1    1.766    1.595    63.4    34.7    20.2
1996 07 01    10 25.70   -04 44.3    1.787    1.577    61.4    34.5    20.2
1996 07 06    10 35.94   -05 42.0    1.806    1.559    59.5    34.2    20.2
1996 07 11    10 46.50   -06 42.3    1.822    1.540    57.7    33.9    20.2
1996 07 16    10 57.39   -07 44.8    1.837    1.522    55.9    33.6    20.1
1996 07 21    11 08.61   -08 49.5    1.850    1.503    54.3    33.3    20.1
1996 07 26    11 20.17   -09 56.1    1.862    1.484    52.7    33.0    20.1
1996 07 31    11 32.08   -11 04.5    1.871    1.466    51.1    32.6    20.1
1996 08 05    11 44.36   -12 14.2    1.879    1.447    49.7    32.3    20.0
1996 08 10    11 57.02   -13 25.1    1.885    1.428    48.3    32.0    20.0
1996 08 15    12 10.09   -14 36.8    1.890    1.410    47.0    31.7    20.0
1996 08 20    12 23.58   -15 48.9    1.894    1.391    45.7    31.4    19.9
1996 08 25    12 37.51   -17 01.0    1.896    1.373    44.5    31.1    19.9
1996 08 30    12 51.91   -18 12.4    1.897    1.355    43.4    30.8    19.9
1996 09 04    13 06.79   -19 22.8    1.898    1.337    42.3    30.5    19.8
1996 09 09    13 22.18   -20 31.4    1.897    1.320    41.3    30.2    19.8
1996 09 14    13 38.11   -21 37.5    1.896    1.303    40.3    30.0    19.8
1996 09 19    13 54.57   -22 40.6    1.895    1.287    39.4    29.7    19.7
1996 09 24    14 11.57   -23 39.6    1.893    1.272    38.5    29.4    19.7
1996 09 29    14 29.12   -24 33.9    1.890    1.257    37.7    29.1    19.7
1996 10 04    14 47.21   -25 22.5    1.888    1.243    36.9    28.9    19.6
1996 10 09    15 05.82   -26 04.5    1.886    1.229    36.1    28.6    19.6
1996 10 14    15 24.92   -26 39.2    1.884    1.217    35.4    28.3    19.6
1996 10 19    15 44.47   -27 05.6    1.883    1.206    34.7    28.0    19.5
1996 10 24    16 04.39   -27 23.1    1.882    1.196    34.1    27.8    19.5
1996 10 29    16 24.64   -27 31.0    1.882    1.187    33.4    27.5    19.5
1996 11 03    16 45.11   -27 28.6    1.882    1.179    32.8    27.2    19.4
1996 11 08    17 05.75   -27 15.8    1.884    1.173    32.3    26.8    19.4
1996 11 13    17 26.44   -26 52.3    1.886    1.167    31.8    26.5    19.4
1996 11 18    17 47.10   -26 18.0    1.890    1.164    31.3    26.1    19.4
1996 11 23    18 07.64   -25 33.2    1.894    1.162    30.8    25.8    19.4

                       (Last issue was M.P.E.C. 1996-C06)

Brian G. Marsden             (C) Copyright 1996 MPC           M.P.E.C. 1996-D01

Read MPEC 1996-C06 Read MPEC 1996-D02


Our Web policy. Index to the CBAT/MPC/ICQ pages.


Valid HTML 4.01!